Flugplatz Mühlhausen

Für EDEQ sind keine METAR/TAF Berichte vorhanden.
Es werden die Flugwettermeldungen vom Flugplatz Erfurt in 38 km Entfernung angezeigt.

Bericht für EDDE

vom 07.03. um 02:20 UTC

Wind 8 kt aus 200°

Sichtweite 10 km oder mehr

gute Sicht, keine Wolken < 5000 ft, keine CB, keine Wettererscheinungen (CAVOK)

Temperatur -4.0°C

Taupunkt -6.0°C

Luftfeuchtigkeit 86%

Luftdruck 1026 hPa

EDDE 070220Z 20008KT CAVOK M04/M06 Q1026

Prognose für EDDE

vom 06.03. um 23:00 UTC

Zwischen 00:00 UTC und 09:00 UTC

Wind 6 kt aus 230°

Sichtweite 10 km oder mehr

keine signifikanten Wettererscheinungen

keine Wolken


Zwischen 09:00 und 11:00 UTC übergehend zu

Wind 7 kt aus 300°

Sichtweite 10 km oder mehr

keine signifikanten Wettererscheinungen

keine Wolken

TAF EDDE 062300Z 0700/0724 23006KT CAVOK BECMG 0709/0711 30007KT
Impressum